Overview Statistics Trail Chart Weather Telemetry Raw packets
 

This is the latest recevied weather packets stored in our database for station/object SM0UQT-10. If no packets are shown the sender has not sent any weather packets the latest 10 day(s).

<< 6 7 8 9 10 11 12 >>
Time Temp. Humidity Pressure Rain* Wind** Luminosity Snow
1788466130 12.78° C 56% 993.2 hPa - - - -
1788465230 12.78° C 55% 993.3 hPa - - - -
1788464330 12.78° C 55% 993.4 hPa - - - -
1788463430 13.33° C 55% 993.5 hPa - - - -
1788462530 13.89° C 55% 993.5 hPa - - - -
1788461630 13.89° C 54% 993.7 hPa - - - -
1788460730 13.89° C 55% 993.7 hPa - - - -
1788459829 14.44° C 55% 993.9 hPa - - - -
1788458929 15° C 55% 993.9 hPa - - - -
1788458029 15.56° C 55% 993.9 hPa - - - -
1788457129 16.11° C 54% 994 hPa - - - -
1788456229 16.67° C 55% 993.8 hPa - - - -
1788455329 17.78° C 54% 993.9 hPa - - - -
1788454429 17.78° C 55% 993.9 hPa - - - -
1788453529 18.33° C 54% 993.9 hPa - - - -
1788452629 18.89° C 54% 993.8 hPa - - - -
1788451729 19.44° C 55% 993.8 hPa - - - -
1788450859 19.44° C 55% 993.9 hPa - - - -
1788450828 19.44° C 55% 993.9 hPa - - - -
1788449928 18.89° C 53% 994.1 hPa - - - -
1788449028 18.89° C 52% 994.1 hPa - - - -
1788448128 18.89° C 53% 994 hPa - - - -
1788447228 18.89° C 54% 994.2 hPa - - - -
1788446328 18.89° C 54% 994.1 hPa - - - -
1788445428 18.89° C 55% 994.3 hPa - - - -

* Rain since midnight (hover to see other rain measurements)
** Current wind speed in m/s (hover to see current wind gust speed)